Year,Month,Day,Hour,Minute,Value (Times are PST for temperature in C)
2018,01,23,00,00,3.20
2018,01,23,00,01,3.20
2018,01,23,00,02,3.20
2018,01,23,00,03,3.20
2018,01,23,00,04,3.20
2018,01,23,00,05,3.20
2018,01,23,00,06,3.20
2018,01,23,00,07,3.30
2018,01,23,00,08,3.30
2018,01,23,00,09,3.30
2018,01,23,00,10,3.30
2018,01,23,00,11,3.30
2018,01,23,00,12,3.30
2018,01,23,00,13,3.30
2018,01,23,00,14,3.30
2018,01,23,00,15,3.30
2018,01,23,00,16,3.30
2018,01,23,00,17,3.30
2018,01,23,00,18,3.30
2018,01,23,00,19,3.30
2018,01,23,00,20,3.30
2018,01,23,00,21,3.30
2018,01,23,00,22,3.30
2018,01,23,00,23,3.30
2018,01,23,00,24,3.30
2018,01,23,00,25,3.30
2018,01,23,00,26,3.30
2018,01,23,00,27,3.30
2018,01,23,00,28,3.30
2018,01,23,00,29,3.30
2018,01,23,00,30,3.30
2018,01,23,00,31,3.30
2018,01,23,00,32,3.30
2018,01,23,00,33,3.30
2018,01,23,00,34,3.30
2018,01,23,00,35,3.30
2018,01,23,00,36,3.30
2018,01,23,00,37,3.30
2018,01,23,00,38,3.30
2018,01,23,00,39,3.30
2018,01,23,00,40,3.30
2018,01,23,00,41,3.30
2018,01,23,00,42,3.30
2018,01,23,00,43,3.30
2018,01,23,00,44,3.30
2018,01,23,00,45,3.30
2018,01,23,00,46,3.30
2018,01,23,00,47,3.30
2018,01,23,00,48,3.30
2018,01,23,00,49,3.30
2018,01,23,00,50,3.30
2018,01,23,00,51,3.30
2018,01,23,00,52,3.30
2018,01,23,00,53,3.30
2018,01,23,00,54,3.30
2018,01,23,00,55,3.30
2018,01,23,00,56,3.30
2018,01,23,00,57,3.30
2018,01,23,00,58,3.30
2018,01,23,00,59,3.30
2018,01,23,01,00,3.30
2018,01,23,01,01,3.30
2018,01,23,01,02,3.30
2018,01,23,01,03,3.30
2018,01,23,01,04,3.30
2018,01,23,01,05,3.30
2018,01,23,01,06,3.30
2018,01,23,01,07,3.30
2018,01,23,01,08,3.30
2018,01,23,01,09,3.30
2018,01,23,01,10,3.30
2018,01,23,01,11,3.30
2018,01,23,01,12,3.30
2018,01,23,01,13,3.30
2018,01,23,01,14,3.30
2018,01,23,01,15,3.30
2018,01,23,01,16,3.30
2018,01,23,01,17,3.30
2018,01,23,01,18,3.30
2018,01,23,01,19,3.30
2018,01,23,01,20,3.30
2018,01,23,01,21,3.30
2018,01,23,01,22,3.30
2018,01,23,01,23,3.30
2018,01,23,01,24,3.30
2018,01,23,01,25,3.30
2018,01,23,01,26,3.30
2018,01,23,01,27,3.30
2018,01,23,01,28,3.30
2018,01,23,01,29,3.30
2018,01,23,01,30,3.30
2018,01,23,01,31,3.30
2018,01,23,01,32,3.30
2018,01,23,01,33,3.30
2018,01,23,01,34,3.30
2018,01,23,01,35,3.30
2018,01,23,01,36,3.30
2018,01,23,01,37,3.30
2018,01,23,01,38,3.30
2018,01,23,01,39,3.30
2018,01,23,01,40,3.30
2018,01,23,01,41,3.30
2018,01,23,01,42,3.30
2018,01,23,01,43,3.30
2018,01,23,01,44,3.30
2018,01,23,01,45,3.30
2018,01,23,01,46,3.30
2018,01,23,01,47,3.30
2018,01,23,01,48,3.30
2018,01,23,01,49,3.30
2018,01,23,01,50,3.30
2018,01,23,01,51,3.30
2018,01,23,01,52,3.30
2018,01,23,01,53,3.30
2018,01,23,01,54,3.30
2018,01,23,01,55,3.30
2018,01,23,01,56,3.30
2018,01,23,01,57,3.30
2018,01,23,01,58,3.30
2018,01,23,01,59,3.30
2018,01,23,02,00,3.30
2018,01,23,02,01,3.30
2018,01,23,02,02,3.30
2018,01,23,02,03,3.30
2018,01,23,02,04,3.30
2018,01,23,02,05,3.30
2018,01,23,02,06,3.30
2018,01,23,02,07,3.30
2018,01,23,02,08,3.30
2018,01,23,02,09,3.30
2018,01,23,02,10,3.30
2018,01,23,02,11,3.30
2018,01,23,02,12,3.30
2018,01,23,02,13,3.30
2018,01,23,02,14,3.30
2018,01,23,02,15,3.30
2018,01,23,02,16,3.30
2018,01,23,02,17,3.30
2018,01,23,02,18,3.30
2018,01,23,02,19,3.40
2018,01,23,02,20,3.40
2018,01,23,02,21,3.40
2018,01,23,02,22,3.40
2018,01,23,02,23,3.40
2018,01,23,02,24,3.40
2018,01,23,02,25,3.40
2018,01,23,02,26,3.40
2018,01,23,02,27,3.40
2018,01,23,02,28,3.40
2018,01,23,02,29,3.40
2018,01,23,02,30,3.40
2018,01,23,02,31,3.40
2018,01,23,02,32,3.40
2018,01,23,02,33,3.40
2018,01,23,02,34,3.40
2018,01,23,02,35,3.40
2018,01,23,02,36,3.40
2018,01,23,02,37,3.40
2018,01,23,02,38,3.40
2018,01,23,02,39,3.40
2018,01,23,02,40,3.40
2018,01,23,02,41,3.40
2018,01,23,02,42,3.40
2018,01,23,02,43,3.40
2018,01,23,02,44,3.40
2018,01,23,02,45,3.40
2018,01,23,02,46,3.40
2018,01,23,02,47,3.40
2018,01,23,02,48,3.40
2018,01,23,02,49,3.40
2018,01,23,02,50,3.40
2018,01,23,02,51,3.40
2018,01,23,02,52,3.40
2018,01,23,02,53,3.40
2018,01,23,02,54,3.40
2018,01,23,02,55,3.40
2018,01,23,02,56,3.40
2018,01,23,02,57,3.40
2018,01,23,02,58,3.40
2018,01,23,02,59,3.40
2018,01,23,03,00,3.40
2018,01,23,03,01,3.40
2018,01,23,03,02,3.30
2018,01,23,03,03,3.30
2018,01,23,03,04,3.30
2018,01,23,03,05,3.30
2018,01,23,03,06,3.40
2018,01,23,03,07,3.40
2018,01,23,03,08,3.40
2018,01,23,03,09,3.40
2018,01,23,03,10,3.40
2018,01,23,03,11,3.40
2018,01,23,03,12,3.40
2018,01,23,03,13,3.40
2018,01,23,03,14,3.40
2018,01,23,03,15,3.40
2018,01,23,03,16,3.40
2018,01,23,03,17,3.40
2018,01,23,03,18,3.40
2018,01,23,03,19,3.40
2018,01,23,03,20,3.40
2018,01,23,03,21,3.40
2018,01,23,03,22,3.40
2018,01,23,03,23,3.40
2018,01,23,03,24,3.40
2018,01,23,03,25,3.40
2018,01,23,03,26,3.40
2018,01,23,03,27,3.40
2018,01,23,03,28,3.40
2018,01,23,03,29,3.40
2018,01,23,03,30,3.40
2018,01,23,03,31,3.40
2018,01,23,03,32,3.40
2018,01,23,03,33,3.40
2018,01,23,03,34,3.40
2018,01,23,03,35,3.40
2018,01,23,03,36,3.40
2018,01,23,03,37,3.40
2018,01,23,03,38,3.40
2018,01,23,03,39,3.40
2018,01,23,03,40,3.40
2018,01,23,03,41,3.40
2018,01,23,03,42,3.40
2018,01,23,03,43,3.40
2018,01,23,03,44,3.40
2018,01,23,03,45,3.40
2018,01,23,03,46,3.40
2018,01,23,03,47,3.40
2018,01,23,03,48,3.40
2018,01,23,03,49,3.40
2018,01,23,03,50,3.40
2018,01,23,03,51,3.40
2018,01,23,03,52,3.40
2018,01,23,03,53,3.40
2018,01,23,03,54,3.50
2018,01,23,03,55,3.50
2018,01,23,03,56,3.50
2018,01,23,03,57,3.50
2018,01,23,03,58,3.50
2018,01,23,03,59,3.60
2018,01,23,04,00,3.60
2018,01,23,04,01,3.60
2018,01,23,04,02,3.60
2018,01,23,04,03,3.60
2018,01,23,04,04,3.60
2018,01,23,04,05,3.60
2018,01,23,04,06,3.60
2018,01,23,04,07,3.60
2018,01,23,04,08,3.60
2018,01,23,04,09,3.60
2018,01,23,04,10,3.60
2018,01,23,04,11,3.60
2018,01,23,04,12,3.60
2018,01,23,04,13,3.60
2018,01,23,04,14,3.60
2018,01,23,04,15,3.60
2018,01,23,04,16,3.60
2018,01,23,04,17,3.60
2018,01,23,04,18,3.60
2018,01,23,04,19,3.60
2018,01,23,04,20,3.60
2018,01,23,04,21,3.60
2018,01,23,04,22,3.60
2018,01,23,04,23,3.60
2018,01,23,04,24,3.60
2018,01,23,04,25,3.60
2018,01,23,04,26,3.60
2018,01,23,04,27,3.60
2018,01,23,04,28,3.60
2018,01,23,04,29,3.60
2018,01,23,04,30,3.60
2018,01,23,04,31,3.60
2018,01,23,04,32,3.60
2018,01,23,04,33,3.60
2018,01,23,04,34,3.60
2018,01,23,04,35,3.60
2018,01,23,04,36,3.60
2018,01,23,04,37,3.60
2018,01,23,04,38,3.70
2018,01,23,04,39,3.70
2018,01,23,04,40,3.70
2018,01,23,04,41,3.70
2018,01,23,04,42,3.70
2018,01,23,04,43,3.80
2018,01,23,04,44,3.90
2018,01,23,04,45,3.90
2018,01,23,04,46,4.00
2018,01,23,04,47,4.10
2018,01,23,04,48,4.10
2018,01,23,04,49,4.20
2018,01,23,04,50,4.20
2018,01,23,04,51,4.30
2018,01,23,04,52,4.30
2018,01,23,04,53,4.30
2018,01,23,04,54,4.30
2018,01,23,04,55,4.30
2018,01,23,04,56,4.20
2018,01,23,04,57,4.20
2018,01,23,04,58,4.20
2018,01,23,04,59,4.20
2018,01,23,05,00,4.20
2018,01,23,05,01,4.10
2018,01,23,05,02,4.10
2018,01,23,05,03,4.10
2018,01,23,05,04,4.10
2018,01,23,05,05,4.00
2018,01,23,05,06,4.00
2018,01,23,05,07,4.00
2018,01,23,05,08,4.00
2018,01,23,05,09,4.00
2018,01,23,05,10,3.90
2018,01,23,05,11,3.90
2018,01,23,05,12,3.90
2018,01,23,05,13,3.90
2018,01,23,05,14,3.90
2018,01,23,05,15,3.90
2018,01,23,05,16,3.90
2018,01,23,05,17,3.90
2018,01,23,05,18,3.90
2018,01,23,05,19,3.90
2018,01,23,05,20,3.90
2018,01,23,05,21,3.90
2018,01,23,05,22,3.90
2018,01,23,05,23,3.90
2018,01,23,05,24,3.90
2018,01,23,05,25,3.90
2018,01,23,05,26,3.90
2018,01,23,05,27,3.90
2018,01,23,05,28,3.90
2018,01,23,05,29,3.90
2018,01,23,05,30,3.90
2018,01,23,05,31,3.90
2018,01,23,05,32,3.90
2018,01,23,05,33,3.90
2018,01,23,05,34,3.90
2018,01,23,05,35,3.90
2018,01,23,05,36,3.90
2018,01,23,05,37,3.90
2018,01,23,05,38,3.90
2018,01,23,05,39,3.90
2018,01,23,05,40,3.90
2018,01,23,05,41,3.90
2018,01,23,05,42,3.90
2018,01,23,05,43,3.90
2018,01,23,05,44,3.90
2018,01,23,05,45,3.90
2018,01,23,05,46,3.90
2018,01,23,05,47,3.90
2018,01,23,05,48,3.90
2018,01,23,05,49,3.90
2018,01,23,05,50,3.90
2018,01,23,05,51,3.90
2018,01,23,05,52,3.90
2018,01,23,05,53,3.90
2018,01,23,05,54,3.90
2018,01,23,05,55,3.90
2018,01,23,05,56,3.90
2018,01,23,05,57,3.90
2018,01,23,05,58,3.90
2018,01,23,05,59,3.90
2018,01,23,06,00,3.90
2018,01,23,06,01,4.00
2018,01,23,06,02,3.90
2018,01,23,06,03,4.00
2018,01,23,06,04,4.00
2018,01,23,06,05,4.00
2018,01,23,06,06,3.90
2018,01,23,06,07,4.00
2018,01,23,06,08,3.90
2018,01,23,06,09,3.90
2018,01,23,06,10,3.90
2018,01,23,06,11,3.90
2018,01,23,06,12,3.90
2018,01,23,06,13,3.90
2018,01,23,06,14,3.90
2018,01,23,06,15,3.90
2018,01,23,06,16,3.90
2018,01,23,06,17,3.90
2018,01,23,06,18,3.90
2018,01,23,06,19,3.90
2018,01,23,06,20,3.90
2018,01,23,06,21,3.90
2018,01,23,06,22,3.90
2018,01,23,06,23,3.90
2018,01,23,06,24,3.90
2018,01,23,06,25,3.90
2018,01,23,06,26,3.90
2018,01,23,06,27,3.90
2018,01,23,06,28,3.90
2018,01,23,06,29,4.00
2018,01,23,06,30,4.00
2018,01,23,06,31,4.00
2018,01,23,06,32,4.00
2018,01,23,06,33,4.00
2018,01,23,06,34,4.00
2018,01,23,06,35,4.00
2018,01,23,06,36,4.10
2018,01,23,06,37,4.10
2018,01,23,06,38,4.10
2018,01,23,06,39,4.10
2018,01,23,06,40,4.10
2018,01,23,06,41,4.10
2018,01,23,06,42,4.10
2018,01,23,06,43,4.10
2018,01,23,06,44,4.10
2018,01,23,06,45,4.10
2018,01,23,06,46,4.10
2018,01,23,06,47,4.10
2018,01,23,06,48,4.10
2018,01,23,06,49,4.10
2018,01,23,06,50,4.10
2018,01,23,06,51,4.10
2018,01,23,06,52,4.10
2018,01,23,06,53,4.10
2018,01,23,06,54,4.10
2018,01,23,06,55,4.10
2018,01,23,06,56,4.10
2018,01,23,06,57,4.10
2018,01,23,06,58,4.10
2018,01,23,06,59,4.10
2018,01,23,07,00,4.10
2018,01,23,07,01,4.10
2018,01,23,07,02,4.10
2018,01,23,07,03,4.20
2018,01,23,07,04,4.20
2018,01,23,07,05,4.20
2018,01,23,07,06,4.20
2018,01,23,07,07,4.30
2018,01,23,07,08,4.30
2018,01,23,07,09,4.30
2018,01,23,07,10,4.30
2018,01,23,07,11,4.30
2018,01,23,07,12,4.30
2018,01,23,07,13,4.30
2018,01,23,07,14,4.30
2018,01,23,07,15,4.30
2018,01,23,07,16,4.30
2018,01,23,07,17,4.30
2018,01,23,07,18,4.40
2018,01,23,07,19,4.40
2018,01,23,07,20,4.40
2018,01,23,07,21,4.40
2018,01,23,07,22,4.40
2018,01,23,07,23,4.30
2018,01,23,07,24,4.30
2018,01,23,07,25,4.30
2018,01,23,07,26,4.30
2018,01,23,07,27,4.30
2018,01,23,07,28,4.30
2018,01,23,07,29,4.30
2018,01,23,07,30,4.30
2018,01,23,07,31,4.30
2018,01,23,07,32,4.30
2018,01,23,07,33,4.30
2018,01,23,07,34,4.30
2018,01,23,07,35,4.30
2018,01,23,07,36,4.30
2018,01,23,07,37,4.30
2018,01,23,07,38,4.30
2018,01,23,07,39,4.30
2018,01,23,07,40,4.30
2018,01,23,07,41,4.30
2018,01,23,07,42,4.30
2018,01,23,07,43,4.30
2018,01,23,07,44,4.20
2018,01,23,07,45,4.20
2018,01,23,07,46,4.20
2018,01,23,07,47,4.20
2018,01,23,07,48,4.20
2018,01,23,07,49,4.20
2018,01,23,07,50,4.20
2018,01,23,07,51,4.20
2018,01,23,07,52,4.20
2018,01,23,07,53,4.20
2018,01,23,07,54,4.20
2018,01,23,07,55,4.20
2018,01,23,07,56,4.20
2018,01,23,07,57,4.20
2018,01,23,07,58,4.20
2018,01,23,07,59,4.20
2018,01,23,08,00,4.20
2018,01,23,08,01,4.20
2018,01,23,08,02,4.20
2018,01,23,08,03,4.20
2018,01,23,08,04,4.20
2018,01,23,08,05,4.20
2018,01,23,08,06,4.20
2018,01,23,08,07,4.20
2018,01,23,08,08,4.20
2018,01,23,08,09,4.20
2018,01,23,08,10,4.20
2018,01,23,08,11,4.20
2018,01,23,08,12,4.20
2018,01,23,08,13,4.20
2018,01,23,08,14,4.20
2018,01,23,08,15,4.20
2018,01,23,08,16,4.30
2018,01,23,08,17,4.30
2018,01,23,08,18,4.30
2018,01,23,08,19,4.30
2018,01,23,08,20,4.30
2018,01,23,08,21,4.30
2018,01,23,08,22,4.30
2018,01,23,08,23,4.30
2018,01,23,08,24,4.30
2018,01,23,08,25,4.30
2018,01,23,08,26,4.30
2018,01,23,08,27,4.30
2018,01,23,08,28,4.30
2018,01,23,08,29,4.30
2018,01,23,08,30,4.30
2018,01,23,08,31,4.30
2018,01,23,08,32,4.30
2018,01,23,08,33,4.30
2018,01,23,08,34,4.30
2018,01,23,08,35,4.30
2018,01,23,08,36,4.40
2018,01,23,08,37,4.40
2018,01,23,08,38,4.40
2018,01,23,08,39,4.40
2018,01,23,08,40,4.40
2018,01,23,08,41,4.40
2018,01,23,08,42,4.40
2018,01,23,08,43,4.40
2018,01,23,08,44,4.30
2018,01,23,08,45,4.30
2018,01,23,08,46,4.30
2018,01,23,08,47,4.30
2018,01,23,08,48,4.30
2018,01,23,08,49,4.30
2018,01,23,08,50,4.30
2018,01,23,08,51,4.30
2018,01,23,08,52,4.30
2018,01,23,08,53,4.30
2018,01,23,08,54,4.30
2018,01,23,08,55,4.30
2018,01,23,08,56,4.30
2018,01,23,08,57,4.30
2018,01,23,08,58,4.30
2018,01,23,08,59,4.30
2018,01,23,09,00,4.20
2018,01,23,09,01,4.20
2018,01,23,09,02,4.20
2018,01,23,09,03,4.20
2018,01,23,09,04,4.20
2018,01,23,09,05,4.20
2018,01,23,09,06,4.20
2018,01,23,09,07,4.20
2018,01,23,09,08,4.20
2018,01,23,09,09,4.10
2018,01,23,09,10,4.10
2018,01,23,09,11,4.10
2018,01,23,09,12,4.10
2018,01,23,09,13,4.10
2018,01,23,09,14,4.00
2018,01,23,09,15,4.00
2018,01,23,09,16,4.00
2018,01,23,09,17,3.90
2018,01,23,09,18,3.90
2018,01,23,09,19,3.90
2018,01,23,09,20,3.90
2018,01,23,09,21,3.80
2018,01,23,09,22,3.80
2018,01,23,09,23,3.80
2018,01,23,09,24,3.70
2018,01,23,09,25,3.70
2018,01,23,09,26,3.70
2018,01,23,09,27,3.60
2018,01,23,09,28,3.60
2018,01,23,09,29,3.60
2018,01,23,09,30,3.60
2018,01,23,09,31,3.60
2018,01,23,09,32,3.50
2018,01,23,09,33,3.50
2018,01,23,09,34,3.50
2018,01,23,09,35,3.40
2018,01,23,09,36,3.40
2018,01,23,09,37,3.40
2018,01,23,09,38,3.40
2018,01,23,09,39,3.40
2018,01,23,09,40,3.40
2018,01,23,09,41,3.40
2018,01,23,09,42,3.40
2018,01,23,09,43,3.40
2018,01,23,09,44,3.40
2018,01,23,09,45,3.40
2018,01,23,09,46,3.40
2018,01,23,09,47,3.40
2018,01,23,09,48,3.40
2018,01,23,09,49,3.30
2018,01,23,09,50,3.30
2018,01,23,09,51,3.30
2018,01,23,09,52,3.30
2018,01,23,09,53,3.30
2018,01,23,09,54,3.30
2018,01,23,09,55,3.30
2018,01,23,09,56,3.30
2018,01,23,09,57,3.30
2018,01,23,09,58,3.20
2018,01,23,09,59,3.20
2018,01,23,10,00,3.20
2018,01,23,10,01,3.20
2018,01,23,10,02,3.20
2018,01,23,10,03,3.20
2018,01,23,10,04,3.20
2018,01,23,10,05,3.20
2018,01,23,10,06,3.20
2018,01,23,10,07,3.20
2018,01,23,10,08,3.20
2018,01,23,10,09,3.10
2018,01,23,10,10,3.10
2018,01,23,10,11,3.10
2018,01,23,10,12,3.10
2018,01,23,10,13,3.10
2018,01,23,10,14,3.10
2018,01,23,10,15,3.10
2018,01,23,10,16,3.10
2018,01,23,10,17,3.10
2018,01,23,10,18,3.10
2018,01,23,10,19,3.00
2018,01,23,10,20,3.00
2018,01,23,10,21,3.00
2018,01,23,10,22,3.00
2018,01,23,10,23,3.00
2018,01,23,10,24,2.90
2018,01,23,10,25,2.90
2018,01,23,10,26,2.90
2018,01,23,10,27,2.90
2018,01,23,10,28,2.90
2018,01,23,10,29,2.90
2018,01,23,10,30,2.90
2018,01,23,10,31,2.90
2018,01,23,10,32,2.90
2018,01,23,10,33,2.90
2018,01,23,10,34,2.90
2018,01,23,10,35,2.90
2018,01,23,10,36,2.90
2018,01,23,10,37,2.90
2018,01,23,10,38,2.90
2018,01,23,10,39,2.90
2018,01,23,10,40,2.90
2018,01,23,10,41,2.90
2018,01,23,10,42,2.90
2018,01,23,10,43,2.90
2018,01,23,10,44,2.90
2018,01,23,10,45,2.90
2018,01,23,10,46,2.90
2018,01,23,10,47,2.90
2018,01,23,10,48,2.90
2018,01,23,10,49,2.90
2018,01,23,10,50,2.90
2018,01,23,10,51,2.90
2018,01,23,10,52,2.90
2018,01,23,10,53,2.90
2018,01,23,10,54,2.90
2018,01,23,10,55,2.90
2018,01,23,10,56,2.90
2018,01,23,10,57,2.90
2018,01,23,10,58,2.90
2018,01,23,10,59,2.90
2018,01,23,11,00,2.90
2018,01,23,11,01,2.90
2018,01,23,11,02,2.90
2018,01,23,11,03,2.90
2018,01,23,11,04,2.90
2018,01,23,11,05,2.90
2018,01,23,11,06,2.90
2018,01,23,11,07,2.90
2018,01,23,11,08,2.90
2018,01,23,11,09,2.90
2018,01,23,11,10,2.90
2018,01,23,11,11,2.90
2018,01,23,11,12,2.90
2018,01,23,11,13,2.90
2018,01,23,11,14,2.90
2018,01,23,11,15,2.90
2018,01,23,11,16,2.90
2018,01,23,11,17,2.90
2018,01,23,11,18,2.90
2018,01,23,11,19,2.90
2018,01,23,11,20,2.90
2018,01,23,11,21,2.90
2018,01,23,11,22,2.90
2018,01,23,11,23,2.90
2018,01,23,11,24,2.90
2018,01,23,11,25,2.90
2018,01,23,11,26,2.90
2018,01,23,11,27,2.90
2018,01,23,11,28,2.90
2018,01,23,11,29,2.90
2018,01,23,11,30,2.90
2018,01,23,11,31,2.90
2018,01,23,11,32,2.90
2018,01,23,11,33,2.90
2018,01,23,11,34,2.90
2018,01,23,11,35,2.90
2018,01,23,11,36,3.00
2018,01,23,11,37,3.00
2018,01,23,11,38,3.00
2018,01,23,11,39,3.00
2018,01,23,11,40,2.90
2018,01,23,11,41,2.90
2018,01,23,11,42,2.90
2018,01,23,11,43,2.90
2018,01,23,11,44,2.90
2018,01,23,11,45,2.90
2018,01,23,11,46,2.90
2018,01,23,11,47,2.90
2018,01,23,11,48,2.90
2018,01,23,11,49,2.90
2018,01,23,11,50,2.90
2018,01,23,11,51,2.90
2018,01,23,11,52,2.90
2018,01,23,11,53,2.90
2018,01,23,11,54,2.90
2018,01,23,11,55,2.90
2018,01,23,11,56,2.90
2018,01,23,11,57,2.90
2018,01,23,11,58,2.90
2018,01,23,11,59,2.90
2018,01,23,12,00,2.90
2018,01,23,12,01,2.90
2018,01,23,14,33,3.30
2018,01,23,14,34,3.30
2018,01,23,14,35,3.30
2018,01,23,14,36,3.30
2018,01,23,14,37,3.30
2018,01,23,14,38,3.30
2018,01,23,14,39,3.30
2018,01,23,14,40,3.40
2018,01,23,14,41,3.40
2018,01,23,14,42,3.40
2018,01,23,14,43,3.40
2018,01,23,14,44,3.40
2018,01,23,14,45,3.40
2018,01,23,14,46,3.40
2018,01,23,14,47,3.50
2018,01,23,14,48,3.50
2018,01,23,14,49,3.50
2018,01,23,14,50,3.50
2018,01,23,14,51,3.50
2018,01,23,14,52,3.40
2018,01,23,14,53,3.50
2018,01,23,14,54,3.50
2018,01,23,14,55,3.40
2018,01,23,14,56,3.40
2018,01,23,14,57,3.40
2018,01,23,14,58,3.40
2018,01,23,14,59,3.40
2018,01,23,15,00,3.40
2018,01,23,15,01,3.40
2018,01,23,15,02,3.40
2018,01,23,15,03,3.40
2018,01,23,15,04,3.40
2018,01,23,15,05,3.40
2018,01,23,15,06,3.40
2018,01,23,15,07,3.40
2018,01,23,15,08,3.40
2018,01,23,15,09,3.40
2018,01,23,15,10,3.40
2018,01,23,15,11,3.40
2018,01,23,15,12,3.40
2018,01,23,15,13,3.40
2018,01,23,15,14,3.40
2018,01,23,15,15,3.30
2018,01,23,15,16,3.30
2018,01,23,15,17,3.30
2018,01,23,15,18,3.30
2018,01,23,15,19,3.30
2018,01,23,15,20,3.40
2018,01,23,15,21,3.40
2018,01,23,15,22,3.40
2018,01,23,15,23,3.40
2018,01,23,15,24,3.40
2018,01,23,15,25,3.40
2018,01,23,15,26,3.40
2018,01,23,15,27,3.40
2018,01,23,15,28,3.40
2018,01,23,15,29,3.40
2018,01,23,15,30,3.40
2018,01,23,15,31,3.40
2018,01,23,15,32,3.40
2018,01,23,15,33,3.40
2018,01,23,15,34,3.40
2018,01,23,15,35,3.40
2018,01,23,15,36,3.40
2018,01,23,15,37,3.40
2018,01,23,15,38,3.40
2018,01,23,15,39,3.40
2018,01,23,15,40,3.40
2018,01,23,15,41,3.40
2018,01,23,15,42,3.40
2018,01,23,15,43,3.40
2018,01,23,15,44,3.50
2018,01,23,15,45,3.50
2018,01,23,15,46,3.50
2018,01,23,15,47,3.50
2018,01,23,15,48,3.50
2018,01,23,15,49,3.50
2018,01,23,15,50,3.50
2018,01,23,15,51,3.60
2018,01,23,15,52,3.60
2018,01,23,15,53,3.60
2018,01,23,15,54,3.50
2018,01,23,15,55,3.50
2018,01,23,15,56,3.50
2018,01,23,15,57,3.60
2018,01,23,15,58,3.60
2018,01,23,15,59,3.60
2018,01,23,16,00,3.60
2018,01,23,16,01,3.60
2018,01,23,16,02,3.60
2018,01,23,16,03,3.60
2018,01,23,16,04,3.60
2018,01,23,16,05,3.50
2018,01,23,16,06,3.50
2018,01,23,16,07,3.50
2018,01,23,16,08,3.50
2018,01,23,16,09,3.50
2018,01,23,16,10,3.50
2018,01,23,16,11,3.50
2018,01,23,16,12,3.50
2018,01,23,16,13,3.50
2018,01,23,16,14,3.50
2018,01,23,16,15,3.50
2018,01,23,16,16,3.60
2018,01,23,16,17,3.60
2018,01,23,16,18,3.60
2018,01,23,16,19,3.60
2018,01,23,16,20,3.60
2018,01,23,16,21,3.60
2018,01,23,16,22,3.60
2018,01,23,16,23,3.60
2018,01,23,16,24,3.60
2018,01,23,16,25,3.60
2018,01,23,16,26,3.60
2018,01,23,16,27,3.60
2018,01,23,16,28,3.60
2018,01,23,16,29,3.60
2018,01,23,16,30,3.60
2018,01,23,16,31,3.60
2018,01,23,16,32,3.60
2018,01,23,16,33,3.60
2018,01,23,16,34,3.60
2018,01,23,16,35,3.60
2018,01,23,16,36,3.60
2018,01,23,16,37,3.60
2018,01,23,16,38,3.50
2018,01,23,16,39,3.50
2018,01,23,16,40,3.50
2018,01,23,16,41,3.50
2018,01,23,16,42,3.50
2018,01,23,16,43,3.50
2018,01,23,16,44,3.50
2018,01,23,16,45,3.50
2018,01,23,16,46,3.50
2018,01,23,16,47,3.50
2018,01,23,16,48,3.50
2018,01,23,16,49,3.50
2018,01,23,16,50,3.50
2018,01,23,16,51,3.50
2018,01,23,16,52,3.50
2018,01,23,16,53,3.50
2018,01,23,16,54,3.50
2018,01,23,16,55,3.50
2018,01,23,16,56,3.50
2018,01,23,16,57,3.50
2018,01,23,16,58,3.50
2018,01,23,16,59,3.50
2018,01,23,17,00,3.50
2018,01,23,17,01,3.50
2018,01,23,17,02,3.50
2018,01,23,17,03,3.50
2018,01,23,17,04,3.50
2018,01,23,17,05,3.50
2018,01,23,17,06,3.50
2018,01,23,17,07,3.50
2018,01,23,17,08,3.40
2018,01,23,17,09,3.40
2018,01,23,17,10,3.40
2018,01,23,17,11,3.40
2018,01,23,17,12,3.40
2018,01,23,17,13,3.40
2018,01,23,17,14,3.40
2018,01,23,17,15,3.40
2018,01,23,17,16,3.40
2018,01,23,17,17,3.40
2018,01,23,17,18,3.40
2018,01,23,17,19,3.40
2018,01,23,17,20,3.40
2018,01,23,17,21,3.40
2018,01,23,17,22,3.40
2018,01,23,17,23,3.40
2018,01,23,17,24,3.40
2018,01,23,17,25,3.30
2018,01,23,17,26,3.30
2018,01,23,17,27,3.30
2018,01,23,17,28,3.30
2018,01,23,17,29,3.30
2018,01,23,17,30,3.30
2018,01,23,17,31,3.30
2018,01,23,17,32,3.30
2018,01,23,17,33,3.30
2018,01,23,17,34,3.40
2018,01,23,17,35,3.40
2018,01,23,17,36,3.30
2018,01,23,17,37,3.40
2018,01,23,17,38,3.30
2018,01,23,17,39,3.30
2018,01,23,17,40,3.30
2018,01,23,17,41,3.30
2018,01,23,17,42,3.30
2018,01,23,17,43,3.30
2018,01,23,17,44,3.30
2018,01,23,17,45,3.30
2018,01,23,17,46,3.30
2018,01,23,17,47,3.30
2018,01,23,17,48,3.30
2018,01,23,17,49,3.30
2018,01,23,17,50,3.30
2018,01,23,17,51,3.40
2018,01,23,17,52,3.30
2018,01,23,17,53,3.40
2018,01,23,17,54,3.40
2018,01,23,17,55,3.40
2018,01,23,17,56,3.40
2018,01,23,17,57,3.40
2018,01,23,17,58,3.30
2018,01,23,17,59,3.40
2018,01,23,18,00,3.30
2018,01,23,18,01,3.30
2018,01,23,18,02,3.30
2018,01,23,18,03,3.30
2018,01,23,18,04,3.30
2018,01,23,18,05,3.30
2018,01,23,18,06,3.30
2018,01,23,18,07,3.30
2018,01,23,18,08,3.30
2018,01,23,18,09,3.30
2018,01,23,18,10,3.30
2018,01,23,18,11,3.30
2018,01,23,18,12,3.30
2018,01,23,18,13,3.30
2018,01,23,18,14,3.30
2018,01,23,18,15,3.30
2018,01,23,18,16,3.30
2018,01,23,18,17,3.30
2018,01,23,18,18,3.30
2018,01,23,18,19,3.30
2018,01,23,18,20,3.30
2018,01,23,18,21,3.30
2018,01,23,18,22,3.30
2018,01,23,18,23,3.30
2018,01,23,18,24,3.30
2018,01,23,18,25,3.30
2018,01,23,18,26,3.30
2018,01,23,18,27,3.30
2018,01,23,18,28,3.30
2018,01,23,18,29,3.30
2018,01,23,18,30,3.30
2018,01,23,18,31,3.30
2018,01,23,18,32,3.30
2018,01,23,18,33,3.30
2018,01,23,18,34,3.30
2018,01,23,18,35,3.30
2018,01,23,18,36,3.30
2018,01,23,18,37,3.30
2018,01,23,18,38,3.30
2018,01,23,18,39,3.30
2018,01,23,18,40,3.30
2018,01,23,18,41,3.30
2018,01,23,18,42,3.30
2018,01,23,18,43,3.30
2018,01,23,18,44,3.30
2018,01,23,18,45,3.30
2018,01,23,18,46,3.30
2018,01,23,18,47,3.30
2018,01,23,18,48,3.30
2018,01,23,18,49,3.30
2018,01,23,18,50,3.30
2018,01,23,18,51,3.30
2018,01,23,18,52,3.30
2018,01,23,18,53,3.30
2018,01,23,18,54,3.30
2018,01,23,18,55,3.30
2018,01,23,18,56,3.30
2018,01,23,18,57,3.30
2018,01,23,18,58,3.30
2018,01,23,18,59,3.30
2018,01,23,19,00,3.30
2018,01,23,19,01,3.30
2018,01,23,19,02,3.30
2018,01,23,19,03,3.30
2018,01,23,19,04,3.30
2018,01,23,19,05,3.30
2018,01,23,19,06,3.30
2018,01,23,19,07,3.30
2018,01,23,19,08,3.30
2018,01,23,19,09,3.30
2018,01,23,19,10,3.30
2018,01,23,19,11,3.30
2018,01,23,19,12,3.30
2018,01,23,19,13,3.30
2018,01,23,19,14,3.30
2018,01,23,19,15,3.30
2018,01,23,19,16,3.30
2018,01,23,19,17,3.30
2018,01,23,19,18,3.30
2018,01,23,19,19,3.30
2018,01,23,19,20,3.30
2018,01,23,19,21,3.30
2018,01,23,19,22,3.30
2018,01,23,19,23,3.30
2018,01,23,19,24,3.30
2018,01,23,19,25,3.30
2018,01,23,19,26,3.30
2018,01,23,19,27,3.30
2018,01,23,19,28,3.30
2018,01,23,19,29,3.30
2018,01,23,19,30,3.20
2018,01,23,19,31,3.20
2018,01,23,19,32,3.20
2018,01,23,19,33,3.20
2018,01,23,19,34,3.20
2018,01,23,19,35,3.20
2018,01,23,19,36,3.20
2018,01,23,19,37,3.20
2018,01,23,19,38,3.20
2018,01,23,19,39,3.20
2018,01,23,19,40,3.20
2018,01,23,19,41,3.20
2018,01,23,19,42,3.20
2018,01,23,19,43,3.20
2018,01,23,19,44,3.20
2018,01,23,19,45,3.10
2018,01,23,19,46,3.10
2018,01,23,19,47,3.10
2018,01,23,19,48,3.10
2018,01,23,19,49,3.10
2018,01,23,19,50,3.10
2018,01,23,19,51,3.10
2018,01,23,19,52,3.10
2018,01,23,19,53,3.10
2018,01,23,19,54,3.10
2018,01,23,19,55,3.10
2018,01,23,19,56,3.10
2018,01,23,19,57,3.10
2018,01,23,19,58,3.10
2018,01,23,19,59,3.10
2018,01,23,20,00,3.10
2018,01,23,20,01,3.10
2018,01,23,20,02,3.10
2018,01,23,20,03,3.10
2018,01,23,20,04,3.10
2018,01,23,20,05,3.10
2018,01,23,20,06,3.10
2018,01,23,20,07,3.10
2018,01,23,20,08,3.10
2018,01,23,20,09,3.10
2018,01,23,20,10,3.10
2018,01,23,20,11,3.10
2018,01,23,20,12,3.10
2018,01,23,20,13,3.10
2018,01,23,20,14,3.10
2018,01,23,20,15,3.10
2018,01,23,20,16,3.10
2018,01,23,20,17,3.10
2018,01,23,20,18,3.10
2018,01,23,20,19,3.10
2018,01,23,20,20,3.10
2018,01,23,20,21,3.10
2018,01,23,20,22,3.10
2018,01,23,20,23,3.10
2018,01,23,20,24,3.10
2018,01,23,20,25,3.10
2018,01,23,20,26,3.10
2018,01,23,20,27,3.10
2018,01,23,20,28,3.10
2018,01,23,20,29,3.10
2018,01,23,20,30,3.10
2018,01,23,20,31,3.10
2018,01,23,20,32,3.10
2018,01,23,20,33,3.10
2018,01,23,20,34,3.10
2018,01,23,20,35,3.10
2018,01,23,20,36,3.10
2018,01,23,20,37,3.10